map of LRM home
LRM - Airport
Location
City:  La Romana, La Romana, Dominican Republic
Name:Casa de Campo International Airport
ICAO:MDLR
IATA:LRM

Details
Type:Airport (Aerodrome, Airfield)
Use:Public/Civil, International (customs port of entry)
Latitude:1827'03"N (18.450711)
Longitude:6854'43"W (-68.911832)
Datum:WGS 1984
Elevation:240 ft (73 m)
Variation:11.84W (WMM2015 magnetic declination)
-0.07 annual change
Runways:1
Longest:9676 × 148 ft (2949 × 45 m), paved

Time
Time Zone:UTC-4
Local Time:

Weather
METAR:MDLR 080000Z 04006KT 9999 FEW016 23/22 Q1017

Related Locations
Nearby:
Farthest:EXM: 12121 mi / 19507 km
Exmouth Gulf, WA, AU

Find:

   beyond  
but within

Other Information
Maps:
NOTAMs:
Links:
Sources:

  
flag of Dominican Republic   

Sectional Chart

Flight Planning
at skyvector.com

Satellite Image

Google Maps Satellite view

 

Copyright © 2004-2016 Karl L. Swartz. All rights reserved.
The Great Circle Mapper name and logo are trademarks of the Great Circle Mapper.
All other trademarks mentioned herein belong to their respective owners.
Please see credits for attibutions and further copyright information.

  Follow gcmap on Facebook Follow gcmap on Twitter Follow gcmap on Google+ GCmap on LinkedIn

hCard Microformat

Geo Microformat